Location: Cran-Gévrier
(45.9039°N, 6.1012°E)
Time: 09:44:04
(UTC+00:00)

Oscar 19 - Visible Passes

Search period start: 08 December 2023 00:00
Search period end: 18 December 2023 00:00
Orbit: 771 x 789 km, 98.9° (Epoch: 07 December)

Date Brightness Start Highest point End Pass type
(mag) Time Alt. Az. Time Alt. Az. Time Alt. Az.
08 Dec 12.1 03:43:05 10° NNE 03:47:47 34° E 03:52:29 10° SSE visible
08 Dec 11.2 05:22:23 10° N 05:27:00 34° WNW 05:31:37 10° SW visible
08 Dec 13.5 16:43:24 10° SW 16:46:40 17° W 16:49:57 10° NW visible
09 Dec 13.1 03:11:38 10° NE 03:15:10 18° E 03:18:41 10° SE visible
09 Dec 10.5 04:49:44 10° N 04:54:50 63° WNW 04:59:57 10° SSW visible
09 Dec 12.4 06:32:11 10° NW 06:33:06 10° NW 06:34:00 10° WNW visible
10 Dec 10.8 04:17:22 10° NNE 04:22:32 69° ESE 04:27:41 10° S visible
10 Dec 11.9 05:57:44 10° NNW 06:01:15 19° WNW 06:04:46 10° WSW visible
11 Dec 12.0 03:45:19 10° NNE 03:50:04 36° E 03:54:48 10° SSE visible
11 Dec 11.2 05:24:40 10° N 05:29:16 33° WNW 05:33:50 10° SW visible
11 Dec 13.5 16:45:48 10° SW 16:48:57 16° W 16:52:08 10° NW visible
12 Dec 13.0 03:13:49 10° NE 03:17:27 19° E 03:21:04 10° SE visible
12 Dec 10.6 04:52:00 10° N 04:57:07 61° WNW 05:02:12 10° SSW visible
12 Dec 12.4 06:34:56 10° NW 06:35:20 10° NW 06:35:45 10° WNW visible
13 Dec 10.8 04:19:37 10° NNE 04:24:48 72° ESE 04:29:58 10° S visible
13 Dec 11.9 06:00:03 10° NNW 06:03:30 18° WNW 06:06:57 10° W visible
14 Dec 12.0 03:47:33 10° NNE 03:52:21 37° E 03:57:08 10° SSE visible
14 Dec 11.3 05:26:58 10° N 05:31:30 32° WNW 05:36:03 10° SW visible
14 Dec 13.5 16:48:12 10° SW 16:51:14 16° W 16:54:18 10° NW visible
15 Dec 13.0 03:16:00 10° NE 03:19:45 20° E 03:23:28 10° SE visible
15 Dec 10.6 04:54:17 10° N 04:59:22 59° WNW 05:04:27 10° SSW visible
16 Dec 10.7 04:21:52 10° NNE 04:27:04 74° ESE 04:32:15 10° S visible
16 Dec 12.0 06:02:22 10° NNW 06:05:44 18° WNW 06:09:07 10° W visible
17 Dec 11.9 03:49:47 10° NNE 03:54:38 38° E 03:59:27 10° SSE visible
17 Dec 11.3 05:29:15 10° N 05:33:46 31° WNW 05:38:16 10° SW visible
17 Dec 13.6 16:50:36 10° SW 16:53:31 15° W 16:56:28 10° NW visible
